Tracking 29892 objects as of 21-Nov-2024
HD Live streaming from Space Station
objects crossing your sky now

ONEWEB-0346

Track ONEWEB-0346 now!
10-day predictions
ONEWEB-0346 is classified as:


NORAD ID: 49212
Int'l Code: 2021-083AC
Perigee: 1,195.5 km
Apogee: 1,198.2 km
Inclination: 87.9 °
Period: 109.2 minutes
Semi major axis: 7567 km
RCS: Unknown
Launch date: September 14, 2021
Source: United Kingdom (UK)
Launch site: TYURATAM MISSILE AND SPACE COMPLEX (TTMTR)
Your satellite tracking list
Your tracking list is empty




NASA's NSSDC Master Catalog

Two Line Element Set (TLE):
1 49212U 21083AC  24325.82402757 -.00000013  00000-0 -65946-4 0  9993
2 49212  87.9094  89.5614 0001816 110.9868 249.1458 13.18688096154417
Source of the keplerian elements: AFSPC